SWA452 KBWI-KPIT

Flight info

Callsign SWA452
Flight time 0h 39m
Altitude 18000
Route LINSE2 MCRAY Q178 LEJOY DEMME5
Aircraft B738/M-SDGIJ1LRWY/SB1

Departure

Time 2026-05-07 01:20
Airport Baltimore/Washington International Thurgood Marshall Airport (KBWI)

Arrival

Time 2026-05-07 01:59
Airport Pittsburgh International Airport (KPIT)
Time Latitude Longitude Altitude Speed Heading
2026-05-07 00:50 39.17707 -76.66911 149 ft 0 kts 236°
2026-05-07 01:08 39.17709 -76.66908 149 ft 2 kts 236°
2026-05-07 01:09 39.17715 -76.66895 149 ft 0 kts 235°
2026-05-07 01:09 39.17723 -76.66882 150 ft 2 kts 216°
2026-05-07 01:09 39.17736 -76.66873 150 ft 2 kts 195°
2026-05-07 01:09 39.17751 -76.66872 150 ft 2 kts 173°
2026-05-07 01:10 39.17765 -76.66877 150 ft 1 kts 151°
2026-05-07 01:10 39.17771 -76.66882 150 ft 1 kts 142°
2026-05-07 01:10 39.17773 -76.66884 150 ft 0 kts 144°
2026-05-07 01:12 39.17746 -76.66858 150 ft 6 kts 144°
2026-05-07 01:12 39.17704 -76.66820 150 ft 8 kts 144°
2026-05-07 01:12 39.17659 -76.66784 149 ft 5 kts 160°
2026-05-07 01:13 39.17658 -76.66783 149 ft 0 kts 160°
2026-05-07 01:13 39.17656 -76.66782 149 ft 2 kts 163°
2026-05-07 01:13 39.17627 -76.66778 148 ft 0 kts 178°
2026-05-07 01:13 39.17622 -76.66778 148 ft 1 kts 180°
2026-05-07 01:14 39.17607 -76.66778 148 ft 0 kts 180°
2026-05-07 01:14 39.17560 -76.66776 146 ft 12 kts 165°
2026-05-07 01:15 39.17525 -76.66679 146 ft 15 kts 95°
2026-05-07 01:15 39.17549 -76.66551 146 ft 11 kts 43°
2026-05-07 01:15 39.17565 -76.66462 146 ft 11 kts 115°
2026-05-07 01:15 39.17500 -76.66325 143 ft 24 kts 123°
2026-05-07 01:16 39.17451 -76.66112 139 ft 25 kts 94°
2026-05-07 01:16 39.17436 -76.65878 134 ft 27 kts 94°
2026-05-07 01:16 39.17424 -76.65651 128 ft 17 kts 93°
2026-05-07 01:16 39.17403 -76.65541 124 ft 5 kts 131°
2026-05-07 01:17 39.17384 -76.65528 124 ft 0 kts 172°
2026-05-07 01:18 39.17371 -76.65526 124 ft 7 kts 172°
2026-05-07 01:19 39.17308 -76.65520 125 ft 7 kts 186°
2026-05-07 01:19 39.17282 -76.65555 126 ft 3 kts 268°
2026-05-07 01:19 39.17282 -76.65556 126 ft 0 kts 269°
2026-05-07 01:19 39.17295 -76.65856 134 ft 72 kts 273°
2026-05-07 01:20 39.17348 -76.66805 147 ft 140 kts 274°
2026-05-07 01:20 39.17437 -76.68256 503 ft 166 kts 274°
2026-05-07 01:20 39.17496 -76.69710 1287 ft 167 kts 270°
2026-05-07 01:20 39.17538 -76.71243 1756 ft 182 kts 271°
2026-05-07 01:21 39.17610 -76.72909 2268 ft 194 kts 273°
2026-05-07 01:21 39.17707 -76.74689 2737 ft 211 kts 272°
2026-05-07 01:21 39.17835 -76.76637 3263 ft 226 kts 275°
2026-05-07 01:21 39.18012 -76.78702 3833 ft 239 kts 275°
2026-05-07 01:22 39.18209 -76.80868 4448 ft 251 kts 275°
2026-05-07 01:22 39.18408 -76.83114 5233 ft 255 kts 275°
2026-05-07 01:22 39.18607 -76.85374 6062 ft 257 kts 274°
2026-05-07 01:22 39.18809 -76.87658 6845 ft 259 kts 274°
2026-05-07 01:23 39.19009 -76.89938 7600 ft 260 kts 274°
2026-05-07 01:23 39.19208 -76.92251 8343 ft 261 kts 274°
2026-05-07 01:23 39.19408 -76.94572 9044 ft 264 kts 274°
2026-05-07 01:23 39.19611 -76.96924 9764 ft 266 kts 275°
2026-05-07 01:24 39.19893 -76.99255 10446 ft 270 kts 277°
2026-05-07 01:24 39.20266 -77.01667 10879 ft 283 kts 279°
2026-05-07 01:24 39.20688 -77.04203 11302 ft 296 kts 279°
2026-05-07 01:24 39.21120 -77.06827 11854 ft 304 kts 279°
2026-05-07 01:25 39.21550 -77.09486 12583 ft 305 kts 278°
2026-05-07 01:25 39.22044 -77.12140 13325 ft 308 kts 284°
2026-05-07 01:25 39.22975 -77.14632 14054 ft 318 kts 301°
2026-05-07 01:25 39.24529 -77.16674 14808 ft 327 kts 313°
2026-05-07 01:26 39.26306 -77.18562 15552 ft 330 kts 314°
2026-05-07 01:26 39.28067 -77.20417 16272 ft 332 kts 313°
2026-05-07 01:26 39.29841 -77.22320 16990 ft 333 kts 313°
2026-05-07 01:26 39.31611 -77.24249 17684 ft 335 kts 313°
2026-05-07 01:27 39.33388 -77.26210 18366 ft 337 kts 312°
2026-05-07 01:27 39.35099 -77.28207 19022 ft 335 kts 308°
2026-05-07 01:27 39.36608 -77.30474 19681 ft 331 kts 300°
2026-05-07 01:27 39.37797 -77.33027 19949 ft 331 kts 292°
2026-05-07 01:28 39.38731 -77.35688 19975 ft 323 kts 288°
2026-05-07 01:28 39.39549 -77.38355 19981 ft 313 kts 286°
2026-05-07 01:28 39.40305 -77.40944 19984 ft 309 kts 286°
2026-05-07 01:28 39.41060 -77.43542 19952 ft 307 kts 286°
2026-05-07 01:29 39.41822 -77.46137 19947 ft 308 kts 286°
2026-05-07 01:29 39.42587 -77.48709 19946 ft 309 kts 286°
2026-05-07 01:29 39.43366 -77.51305 19947 ft 308 kts 286°
2026-05-07 01:29 39.44139 -77.53868 19945 ft 308 kts 286°
2026-05-07 01:30 39.44915 -77.56433 19944 ft 308 kts 287°
2026-05-07 01:30 39.45703 -77.59042 19942 ft 308 kts 287°
2026-05-07 01:30 39.46480 -77.61611 19941 ft 308 kts 287°
2026-05-07 01:30 39.47254 -77.64174 19940 ft 308 kts 286°
2026-05-07 01:31 39.48043 -77.66791 19938 ft 308 kts 286°
2026-05-07 01:31 39.48815 -77.69353 19937 ft 312 kts 286°
2026-05-07 01:31 39.49622 -77.72048 19937 ft 328 kts 286°
2026-05-07 01:31 39.50454 -77.74838 19928 ft 345 kts 286°
2026-05-07 01:32 39.51344 -77.77819 19924 ft 361 kts 286°
2026-05-07 01:32 39.52259 -77.80871 19921 ft 365 kts 286°
2026-05-07 01:32 39.53178 -77.83923 19923 ft 364 kts 286°
2026-05-07 01:32 39.54095 -77.86963 19924 ft 364 kts 286°
2026-05-07 01:33 39.55022 -77.89992 19925 ft 364 kts 287°
2026-05-07 01:33 39.55956 -77.93019 19927 ft 364 kts 287°
2026-05-07 01:33 39.56898 -77.96071 19928 ft 364 kts 287°
2026-05-07 01:33 39.57835 -77.99105 19931 ft 364 kts 287°
2026-05-07 01:34 39.58778 -78.02170 19932 ft 364 kts 287°
2026-05-07 01:34 39.59712 -78.05215 19932 ft 364 kts 287°
2026-05-07 01:34 39.60646 -78.08274 19935 ft 375 kts 287°
2026-05-07 01:34 39.61611 -78.11444 19931 ft 377 kts 287°
2026-05-07 01:35 39.62564 -78.14565 19932 ft 376 kts 287°
2026-05-07 01:35 39.63526 -78.17719 19934 ft 376 kts 287°
2026-05-07 01:35 39.64483 -78.20882 19934 ft 375 kts 286°
2026-05-07 01:35 39.65429 -78.24015 19936 ft 375 kts 286°
2026-05-07 01:36 39.66382 -78.27172 19940 ft 375 kts 286°
2026-05-07 01:36 39.67323 -78.30286 19944 ft 375 kts 287°
2026-05-07 01:36 39.68281 -78.33459 19948 ft 375 kts 287°
2026-05-07 01:36 39.69236 -78.36620 19952 ft 375 kts 287°
2026-05-07 01:37 39.70178 -78.39740 19955 ft 375 kts 287°
2026-05-07 01:37 39.71137 -78.42916 19958 ft 375 kts 287°
2026-05-07 01:37 39.72084 -78.46056 19961 ft 375 kts 287°
2026-05-07 01:37 39.73026 -78.49185 19964 ft 375 kts 287°
2026-05-07 01:38 39.73982 -78.52361 19969 ft 375 kts 287°
2026-05-07 01:38 39.74934 -78.55525 19972 ft 375 kts 287°
2026-05-07 01:38 39.75870 -78.58645 19975 ft 375 kts 287°
2026-05-07 01:38 39.76825 -78.61827 19977 ft 375 kts 287°
2026-05-07 01:39 39.77764 -78.64961 19978 ft 375 kts 287°
2026-05-07 01:39 39.78712 -78.68130 19978 ft 375 kts 286°
2026-05-07 01:39 39.79659 -78.71298 19979 ft 375 kts 286°
2026-05-07 01:39 39.80591 -78.74421 19979 ft 375 kts 286°
2026-05-07 01:40 39.81532 -78.77575 19976 ft 375 kts 286°
2026-05-07 01:40 39.82475 -78.80743 19977 ft 375 kts 286°
2026-05-07 01:40 39.83405 -78.83865 19976 ft 369 kts 286°
2026-05-07 01:40 39.84316 -78.86912 20005 ft 352 kts 286°
2026-05-07 01:41 39.85189 -78.89829 19989 ft 335 kts 286°
2026-05-07 01:41 39.86004 -78.92556 19966 ft 319 kts 285°
2026-05-07 01:41 39.86790 -78.95201 19939 ft 305 kts 285°
2026-05-07 01:41 39.87534 -78.97725 19885 ft 301 kts 285°
2026-05-07 01:42 39.88288 -79.00304 19868 ft 305 kts 285°
2026-05-07 01:42 39.89034 -79.02859 19875 ft 306 kts 285°
2026-05-07 01:42 39.89791 -79.05439 19906 ft 301 kts 285°
2026-05-07 01:42 39.90526 -79.07920 19964 ft 285 kts 285°
2026-05-07 01:43 39.91221 -79.10259 19973 ft 269 kts 285°
2026-05-07 01:43 39.91878 -79.12483 19977 ft 259 kts 284°
2026-05-07 01:43 39.92521 -79.14687 19993 ft 263 kts 284°
2026-05-07 01:43 39.93165 -79.16909 19824 ft 267 kts 284°
2026-05-07 01:44 39.93824 -79.19170 19475 ft 271 kts 284°
2026-05-07 01:44 39.94510 -79.21532 19079 ft 288 kts 285°
2026-05-07 01:44 39.95227 -79.24000 18653 ft 293 kts 285°
2026-05-07 01:44 39.95953 -79.26471 18219 ft 293 kts 285°
2026-05-07 01:45 39.96684 -79.28960 17798 ft 299 kts 285°
2026-05-07 01:45 39.97419 -79.31469 17398 ft 298 kts 285°
2026-05-07 01:45 39.98157 -79.33984 16981 ft 296 kts 286°
2026-05-07 01:45 39.98881 -79.36456 16572 ft 295 kts 286°
2026-05-07 01:46 39.99620 -79.38953 16152 ft 294 kts 287°
2026-05-07 01:46 40.00477 -79.41358 15751 ft 296 kts 293°
2026-05-07 01:46 40.01629 -79.43616 15345 ft 300 kts 300°
2026-05-07 01:46 40.02959 -79.45722 14935 ft 302 kts 303°
2026-05-07 01:47 40.04333 -79.47747 14523 ft 302 kts 304°
2026-05-07 01:47 40.05732 -79.49800 14106 ft 301 kts 303°
2026-05-07 01:47 40.07098 -79.51836 13696 ft 300 kts 303°
2026-05-07 01:47 40.08457 -79.53898 13283 ft 297 kts 302°
2026-05-07 01:48 40.09782 -79.55920 12871 ft 292 kts 302°
2026-05-07 01:48 40.11074 -79.57894 12492 ft 278 kts 302°
2026-05-07 01:48 40.12303 -79.59769 12122 ft 266 kts 301°
2026-05-07 01:48 40.13454 -79.61572 11768 ft 259 kts 300°
2026-05-07 01:49 40.14582 -79.63400 11403 ft 255 kts 299°
2026-05-07 01:49 40.15664 -79.65194 11058 ft 251 kts 298°
2026-05-07 01:49 40.16734 -79.66980 10722 ft 249 kts 299°
2026-05-07 01:49 40.17826 -79.68751 10376 ft 250 kts 300°
2026-05-07 01:50 40.18919 -79.70508 10048 ft 249 kts 299°
2026-05-07 01:50 40.19861 -79.72379 9943 ft 244 kts 290°
2026-05-07 01:50 40.20569 -79.74397 9697 ft 246 kts 286°
2026-05-07 01:50 40.21208 -79.76453 9440 ft 241 kts 287°
2026-05-07 01:51 40.21860 -79.78444 9194 ft 241 kts 290°
2026-05-07 01:51 40.22766 -79.80305 8827 ft 249 kts 308°
2026-05-07 01:51 40.24193 -79.81640 8500 ft 254 kts 321°
2026-05-07 01:51 40.25432 -79.83109 8370 ft 230 kts 294°
2026-05-07 01:52 40.25921 -79.84998 8252 ft 214 kts 277°
2026-05-07 01:52 40.26155 -79.86904 7928 ft 215 kts 277°
2026-05-07 01:52 40.26420 -79.88831 7604 ft 215 kts 279°
2026-05-07 01:52 40.26731 -79.90764 7185 ft 219 kts 280°
2026-05-07 01:53 40.27055 -79.92706 6854 ft 220 kts 281°
2026-05-07 01:53 40.27378 -79.94639 6647 ft 214 kts 280°
2026-05-07 01:53 40.27782 -79.96487 6382 ft 213 kts 296°
2026-05-07 01:53 40.28852 -79.97862 5978 ft 224 kts 333°
2026-05-07 01:54 40.30330 -79.98497 5720 ft 222 kts 335°
2026-05-07 01:54 40.31575 -79.99633 5374 ft 219 kts 307°
2026-05-07 01:54 40.32458 -80.01194 5228 ft 209 kts 309°
2026-05-07 01:54 40.33437 -80.02550 5150 ft 201 kts 316°
2026-05-07 01:55 40.34477 -80.03772 4866 ft 202 kts 317°
2026-05-07 01:55 40.35503 -80.05018 4571 ft 201 kts 317°
2026-05-07 01:55 40.36513 -80.06269 4305 ft 198 kts 317°
2026-05-07 01:55 40.37511 -80.07510 4021 ft 196 kts 317°
2026-05-07 01:56 40.38500 -80.08729 3761 ft 194 kts 317°
2026-05-07 01:56 40.39467 -80.09923 3501 ft 191 kts 316°
2026-05-07 01:56 40.40418 -80.11099 3250 ft 182 kts 315°
2026-05-07 01:56 40.41304 -80.12195 3001 ft 167 kts 315°
2026-05-07 01:57 40.42122 -80.13209 2749 ft 155 kts 315°
2026-05-07 01:57 40.42887 -80.14156 2591 ft 146 kts 316°
2026-05-07 01:57 40.43648 -80.15099 2357 ft 151 kts 316°
2026-05-07 01:57 40.44399 -80.16031 2135 ft 148 kts 316°
2026-05-07 01:58 40.45149 -80.16961 1935 ft 149 kts 317°
2026-05-07 01:58 40.45893 -80.17884 1729 ft 148 kts 317°
2026-05-07 01:58 40.46645 -80.18816 1528 ft 148 kts 318°
2026-05-07 01:58 40.47398 -80.19750 1326 ft 148 kts 319°
2026-05-07 01:59 40.48149 -80.20679 1135 ft 146 kts 319°
2026-05-07 01:59 40.48794 -80.21480 1144 ft 97 kts 317°
2026-05-07 01:59 40.49160 -80.21938 1153 ft 52 kts 313°
2026-05-07 01:59 40.49177 -80.22134 1154 ft 12 kts 226°
2026-05-07 02:00 40.49173 -80.22139 1153 ft 0 kts 226°
2026-05-07 02:00 40.49162 -80.22153 1153 ft 8 kts 223°
2026-05-07 02:00 40.49086 -80.22244 1150 ft 16 kts 223°
2026-05-07 02:01 40.49032 -80.22326 1148 ft 13 kts 248°
2026-05-07 02:01 40.49029 -80.22504 1148 ft 22 kts 274°
2026-05-07 02:01 40.49034 -80.22686 1148 ft 16 kts 272°
2026-05-07 02:01 40.49038 -80.22839 1148 ft 16 kts 272°
2026-05-07 02:02 40.49041 -80.22994 1149 ft 19 kts 271°
2026-05-07 02:02 40.49049 -80.23237 1149 ft 30 kts 275°
2026-05-07 02:02 40.49054 -80.23499 1149 ft 27 kts 272°
2026-05-07 02:02 40.49060 -80.23748 1149 ft 27 kts 272°
2026-05-07 02:03 40.49063 -80.23907 1149 ft 12 kts 271°
2026-05-07 02:03 40.49119 -80.23994 1152 ft 16 kts 358°
2026-05-07 02:03 40.49258 -80.23990 1154 ft 21 kts
2026-05-07 02:03 40.49429 -80.23981 1155 ft 29 kts
2026-05-07 02:04 40.49621 -80.23974 1157 ft 27 kts
2026-05-07 02:04 40.49696 -80.23981 1159 ft 3 kts 299°
2026-05-07 02:04 40.49703 -80.24040 1160 ft 14 kts 273°
2026-05-07 02:04 40.49706 -80.24160 1160 ft 9 kts 285°
2026-05-07 02:05 40.49738 -80.24197 1163 ft 2 kts 354°
2026-05-07 02:05 40.49749 -80.24197 1163 ft 2 kts 358°
2026-05-07 02:05 40.49751 -80.24197 1164 ft 0 kts 358°